TimeCDT,TemperatureF,Dew PointF,Humidity,Sea Level PressureIn,VisibilityMPH,Wind Direction,Wind SpeedMPH,Gust SpeedMPH,PrecipitationIn,Events,Conditions,WindDirDegrees,DateUTC
12:53 AM,60.1,42.1,51,30.10,10.0,South,5.8,-,N/A,,Clear,180,2013-04-07 05:53:00
1:53 AM,59.0,44.1,58,30.10,10.0,South,6.9,-,N/A,,Clear,190,2013-04-07 06:53:00
2:53 AM,55.9,45.0,67,30.10,10.0,Calm,Calm,-,N/A,,Clear,0,2013-04-07 07:53:00
3:53 AM,52.0,45.0,77,30.10,10.0,SE,3.5,-,N/A,,Clear,130,2013-04-07 08:53:00
4:53 AM,50.0,45.0,83,30.11,10.0,Calm,Calm,-,N/A,,Clear,0,2013-04-07 09:53:00
5:53 AM,46.9,43.0,86,30.14,10.0,Calm,Calm,-,N/A,,Clear,0,2013-04-07 10:53:00
6:53 AM,48.9,45.0,86,30.16,10.0,Calm,Calm,-,N/A,,Clear,0,2013-04-07 11:53:00
7:53 AM,57.0,48.0,72,30.17,10.0,SE,5.8,-,N/A,,Clear,140,2013-04-07 12:53:00
8:53 AM,61.0,48.9,64,30.17,10.0,Variable,4.6,-,N/A,,Clear,0,2013-04-07 13:53:00
9:53 AM,63.0,48.9,60,30.17,10.0,SSE,6.9,-,N/A,,Clear,150,2013-04-07 14:53:00
10:53 AM,66.9,46.0,47,30.17,10.0,South,13.8,17.3,N/A,,Partly Cloudy,190,2013-04-07 15:53:00
11:53 AM,71.1,46.9,42,30.14,10.0,SSW,12.7,18.4,N/A,,Clear,200,2013-04-07 16:53:00
12:53 PM,73.0,46.0,38,30.11,10.0,South,12.7,25.3,N/A,,Partly Cloudy,180,2013-04-07 17:53:00
1:53 PM,75.0,46.0,36,30.08,10.0,SSW,8.1,-,N/A,,Partly Cloudy,210,2013-04-07 18:53:00
2:53 PM,75.0,46.0,36,30.07,10.0,WSW,6.9,-,N/A,,Partly Cloudy,250,2013-04-07 19:53:00
3:53 PM,75.9,45.0,33,30.05,10.0,SSW,12.7,19.6,N/A,,Partly Cloudy,210,2013-04-07 20:53:00
4:53 PM,75.9,45.0,33,30.05,10.0,South,15.0,21.9,N/A,,Partly Cloudy,190,2013-04-07 21:53:00
5:53 PM,73.9,46.9,38,30.04,10.0,South,13.8,-,N/A,,Scattered Clouds,190,2013-04-07 22:53:00
6:53 PM,73.0,46.9,39,30.04,10.0,South,9.2,-,N/A,,Partly Cloudy,180,2013-04-07 23:53:00
7:53 PM,70.0,48.0,46,30.04,10.0,South,5.8,-,N/A,,Clear,180,2013-04-08 00:53:00
8:53 PM,66.9,48.9,52,30.04,10.0,SSE,3.5,-,N/A,,Clear,160,2013-04-08 01:53:00
9:53 PM,64.0,48.9,58,30.06,10.0,Calm,Calm,-,N/A,,Clear,0,2013-04-08 02:53:00
10:53 PM,57.9,50.0,75,30.06,10.0,Calm,Calm,-,N/A,,Clear,0,2013-04-08 03:53:00
11:53 PM,64.0,50.0,60,30.05,10.0,SSE,4.6,-,N/A,,Clear,150,2013-04-08 04:53:00